Regional Weather Roundup
Issued by NWS Little Rock, AR

Home | Current Version | Previous Version | Graphics & Text | Print | Product List | Glossary On
Versions: 1 2 3 4 5 6 7 8 9 10 11 12 13 14 15 16 17 18 19 20 21 22 23 24 25 26 27 28 29 30 31 32 33 34 35 36 37 38 39 40 41 42 43 44 45 46 47 48 49 50
000
ASUS44 KLZK 251305
RWRLZK

WEATHER ROUNDUP FOR ARKANSAS
NATIONAL WEATHER SERVICE LITTLE ROCK AR
700 AM CST SUN JAN 25 2015

NOTE: "FAIR" INDICATES FEW OR NO CLOUDS BELOW 12,000 FEET WITH NO
SIGNIFICANT WEATHER AND/OR OBSTRUCTIONS TO VISIBILITY.

ARZ001-003-010-029-251400-
NORTHWEST ARKANSAS

CITY           SKY/WX    TMP DP  RH WIND       PRES   REMARKS
FAYETTEVILLE   CLOUDY    45  38  76 W10       29.77R
FORT SMITH     MOCLDY    45  38  76 W12       29.80R
HARRISON       CLOUDY    44  40  85 W13G22    29.70S
BENTONVILLE    CLOUDY    45  36  70 W10       29.75S
ROGERS         CLOUDY    44  38  79 W7        29.74R
SILOAM SPGS    CLOUDY    45  34  65 W12       29.78S
HIGHFILL       CLOUDY    46  37  71 W12       29.75R
SPRINGDALE     LGT RAIN  45  37  76 W9        29.77S
$$

ARZ004-005-016-251400-
NORTH CENTRAL ARKANSAS

CITY           SKY/WX    TMP DP  RH WIND       PRES   REMARKS
BATESVILLE     CLOUDY    48  34  57 SW10      29.71S
FLIPPIN        CLOUDY    46  39  76 W10       29.69F
MTN HOME       LGT RAIN  45  43  93 SW6       29.68S
$$

ARZ040-041-251400-
WEST CENTRAL ARKANSAS

CITY           SKY/WX    TMP DP  RH WIND       PRES   REMARKS
MENA           PTCLDY    43  36  75 W3        29.82S
MOUNT IDA      PTCLDY    47  35  63 W5        29.77S
$$

ARZ009-017-025-026-028-251400-
NORTHEAST ARKANSAS

CITY           SKY/WX    TMP DP  RH WIND       PRES   REMARKS
JONESBORO      CLOUDY    42  36  79 SW13      29.73S
NEWPORT        LGT RAIN  42  37  82 S12       29.72F
WALNUT RIDGE   CLOUDY    39  34  81 S13       29.69F
BLYTHEVILLE    MOCLDY    42  35  76 S12       29.73F
$$

ARZ022-023-033-042-044-251400-
CENTRAL ARKANSAS

CITY           SKY/WX    TMP DP  RH WIND       PRES   REMARKS
LITTLE ROCK    CLOUDY    44  35  70 SW12      29.78S
N LITTLE ROCK    N/A     44  38  77 SW8G17    29.78S
JACKSONVILLE   CLOUDY    42  36  79 W2        29.76S
SEARCY         CLOUDY    43  35  73 SW6       29.77S
HOT SPRINGS    MOCLDY    41  35  79 NW3       29.80S
RUSSELLVILLE   CLOUDY    39  36  89 CALM      29.75F
CLINTON        CLOUDY    41  36  81 CALM      29.75F
$$

ARZ036-251400-
EAST ARKANSAS

CITY           SKY/WX    TMP DP  RH WIND       PRES   REMARKS
WEST MEMPHIS   CLOUDY    37  35  92 S12       29.76F
$$

ARZ050-053-066-070-073-251400-
SOUTHWEST ARKANSAS

CITY           SKY/WX    TMP DP  RH WIND       PRES   REMARKS
ARKADELPHIA    FAIR      40  37  89 SW5       29.84S
CAMDEN         MIX PCPN  34  32  93 MISG      29.86F
TEXARKANA      PTCLDY    39  35  86 SW9       29.86S
EL DORADO      CLEAR     38  34  85 SW6       29.88S
DE QUEEN       MOCLDY    32  30  92 CALM      29.85S
$$

ARZ056-057-069-251400-
SOUTHEAST ARKANSAS

CITY           SKY/WX    TMP DP  RH WIND       PRES   REMARKS
PINE BLUFF     PTCLDY    40  34  79 SW10      29.81F
STUTTGART      MOCLDY    43  36  75 S13       29.78F
MONTICELLO     CLEAR     42  34  73 SW12      29.85F

$$




USA.gov is the U.S. government's official web portal to all federal, state and local government web resources and services.